Weather History for Kahului, HI

Change the Weather History Date:

Thursday, April 26, 2012

  Actual Average Record
Temperature  
Mean Temperature 74 °F 74 °F  
Max Temperature 85 °F 83 °F 89 °F (1952)
Min Temperature 63 °F 66 °F 56 °F (2009)
Degree Days  
Heating Degree Days 0 0  
Month to date heating degree days 0 0  
Since 1 July heating degree days 0 0  
Cooling Degree Days 9 9  
Month to date cooling degree days 249 234  
Year to date cooling degree days 959 888  
Growing Degree Days 24 (Base 50)    
Moisture  
Dew Point 61 °F    
Average Humidity 66    
Maximum Humidity 87    
Minimum Humidity 44    
Precipitation  
Precipitation 0.00 in 0.03 in 0.85 in (1987)
Month to date precipitation 0.30 1.42  
Year to date precipitation 2.99 8.63  
Snow  
Snow 0.00 in - - ()
Month to date snowfall 0.0  
Since 1 July snowfall 0.0  
Snow Depth 0.00 in    
Sea Level Pressure  
Sea Level Pressure 30.07 in    
Wind  
Wind Speed 6 mph (East)    
Max Wind Speed 18 mph    
Max Gust Speed 23 mph    
Visibility 10 miles    
Events      
T = Trace of Precipitation, MM = Missing Value Source: NWS Daily Summary

Daily Weather History Graph

Daily Weather History Graph

Search for Another Location

Airport:

Trip Planner

Search our weather history database for the weather conditions in past years. The results will help you decide how hot, cold, wet, or windy it might be!

Date:

Astronomy

Apr. 26, 2012 Rise Set
Actual Time 5:58 AM HST 6:48 PM HST
Civil Twilight 5:35 AM HST 7:11 PM HST
Nautical Twilight 5:08 AM HST 7:39 PM HST
Astronomical Twilight 4:40 AM HST 8:06 PM HST
Moon 10:03 AM HST (4/26) 11:32 PM HST (4/26)
Length of Visible Light 13h 36m
Length of Day
12h 50m
Waxing Crescent, 26% of the Moon is Illuminated
Apr 26
Waxing Crescent
Apr 28
First Quarter
May 5
Full
May 12
Last Quarter
May 20
New

Hourly Weather History & Observations

Time (HST) Temp. Heat Index Dew Point Humidity Pressure Visibility Wind Dir Wind Speed Gust Speed Precip Events Conditions
12:54 AM 71.1 °F - 60.1 °F 68% 30.09 in 10.0 mi East 6.9 mph 16.1 mph N/A   Mostly Cloudy
1:54 AM 70.0 °F - 60.1 °F 71% 30.08 in 10.0 mi ENE 6.9 mph - N/A   Scattered Clouds
2:54 AM 69.1 °F - 59.0 °F 70% 30.06 in 10.0 mi Calm Calm - N/A   Partly Cloudy
3:54 AM 64.9 °F - 59.0 °F 81% 30.06 in 10.0 mi South 5.8 mph - N/A   Clear
4:54 AM 64.0 °F - 57.9 °F 80% 30.06 in 10.0 mi SE 4.6 mph - N/A   Clear
5:54 AM 64.0 °F - 57.9 °F 80% 30.07 in 10.0 mi SE 5.8 mph - N/A   Partly Cloudy
6:54 AM 64.9 °F - 60.1 °F 84% 30.08 in 10.0 mi ESE 4.6 mph - N/A   Partly Cloudy
7:54 AM 73.0 °F - 64.0 °F 73% 30.08 in 10.0 mi Calm Calm - N/A   Partly Cloudy
8:54 AM 75.9 °F - 61.0 °F 60% 30.09 in 10.0 mi Variable 3.5 mph - N/A   Scattered Clouds
9:54 AM 78.1 °F - 59.0 °F 52% 30.09 in 10.0 mi Calm Calm - N/A   Scattered Clouds
10:54 AM 81.0 °F 81.1 °F 57.9 °F 45% 30.07 in 10.0 mi Calm Calm - N/A   Scattered Clouds
11:54 AM 84.9 °F 85.0 °F 61.0 °F 44% 30.06 in 10.0 mi NE 16.1 mph 23.0 mph N/A   Scattered Clouds
12:54 PM 82.0 °F 82.7 °F 61.0 °F 49% 30.05 in 10.0 mi ENE 12.7 mph 19.6 mph N/A   Scattered Clouds
1:54 PM 81.0 °F 81.9 °F 62.1 °F 52% 30.05 in 10.0 mi East 11.5 mph 20.7 mph N/A   Scattered Clouds
2:54 PM 82.9 °F 83.7 °F 62.1 °F 49% 30.03 in 10.0 mi ENE 12.7 mph 21.9 mph N/A   Scattered Clouds
3:54 PM 82.9 °F 83.7 °F 62.1 °F 49% 30.03 in 10.0 mi NE 15.0 mph - N/A   Scattered Clouds
4:54 PM 81.0 °F 81.7 °F 61.0 °F 50% 30.03 in 10.0 mi ENE 11.5 mph 16.1 mph N/A   Scattered Clouds
5:54 PM 78.1 °F - 61.0 °F 56% 30.05 in 10.0 mi West 9.2 mph - N/A   Scattered Clouds
6:54 PM 75.9 °F - 62.1 °F 62% 30.07 in 10.0 mi WSW 6.9 mph - N/A   Mostly Cloudy
7:54 PM 73.9 °F - 62.1 °F 66% 30.09 in 10.0 mi East 6.9 mph - N/A   Mostly Cloudy
8:54 PM 73.0 °F - 62.1 °F 68% 30.10 in 10.0 mi East 4.6 mph - N/A   Scattered Clouds
9:54 PM 72.0 °F - 61.0 °F 68% 30.11 in 10.0 mi ESE 3.5 mph - N/A   Mostly Cloudy
10:54 PM 72.0 °F - 62.1 °F 71% 30.11 in 10.0 mi East 4.6 mph - N/A   Mostly Cloudy
11:54 PM 70.0 °F - 63.0 °F 78% 30.10 in 10.0 mi Calm Calm - N/A   Overcast